CST,Max TemperatureF,Mean TemperatureF,Min TemperatureF,Max Dew PointF,MeanDew PointF,Min DewpointF,Max Humidity, Mean Humidity, Min Humidity, Max Sea Level PressureIn, Mean Sea Level PressureIn, Min Sea Level PressureIn, Max VisibilityMiles, Mean VisibilityMiles, Min VisibilityMiles, Max Wind SpeedMPH, Mean Wind SpeedMPH, Max Gust SpeedMPH,PrecipitationIn, CloudCover, Events, WindDirDegrees
2013-2-1,51,35,19,37,27,19,100,80,41,30.24,30.11,29.98,10,10,5,20,12,31,0.00,3,,230
2013-2-2,53,40,26,32,27,23,100,73,35,30.29,30.24,30.17,10,10,10,20,12,25,0.00,0,,295
2013-2-3,50,34,17,30,25,18,100,70,40,30.29,30.05,29.84,10,10,10,20,7,25,0.00,0,,234
2013-2-4,57,40,24,28,24,19,93,59,27,29.98,29.91,29.84,10,10,10,14,10,22,0.00,0,,265
2013-2-5,55,40,26,28,25,19,81,59,36,30.06,29.98,29.90,10,10,10,17,9,22,0.00,0,,249
2013-2-6,62,47,32,37,30,27,87,58,30,29.95,29.83,29.74,10,10,10,15,10,18,0.00,0,,239
2013-2-7,53,40,26,34,26,18,100,60,30,30.17,30.09,29.95,10,10,10,22,13,29,0.00,1,,337
2013-2-8,53,38,24,30,26,18,81,58,38,30.16,30.02,29.86,10,10,10,34,14,44,0.00,0,,180
2013-2-9,57,44,32,43,29,21,100,64,38,29.86,29.63,29.38,10,9,3,34,20,44,0.00,2,Rain,169
2013-2-10,39,32,24,32,29,23,100,92,75,30.05,29.66,29.36,10,9,2,39,27,52,0.00,6,Snow,304
2013-2-11,35,28,21,23,20,18,93,74,52,30.17,30.10,30.05,10,10,10,16,10,17,0.00,1,,315
2013-2-12,44,32,21,27,20,14,93,66,29,30.08,30.02,29.97,10,10,10,20,7,26,0.00,2,,295
2013-2-13,53,37,21,27,23,19,93,62,33,30.01,29.93,29.86,10,10,10,24,13,32,0.00,0,,294
2013-2-14,35,27,19,36,28,19,100,91,75,30.32,30.13,29.98,10,9,1,23,11,26,0.00,4,Rain-Snow,310
2013-2-15,35,25,15,27,20,14,100,83,60,30.35,30.31,30.26,10,10,4,18,9,23,0.00,5,Snow,303
2013-2-16,59,37,15,30,25,14,100,67,34,30.29,30.08,29.98,10,10,10,26,11,36,0.00,3,,275
2013-2-17,64,44,24,32,24,19,87,52,19,29.97,29.72,29.47,10,10,10,31,9,44,0.00,0,,221
2013-2-18,44,34,23,32,25,18,93,67,34,30.13,29.90,29.55,10,10,10,30,22,38,0.00,2,,323
2013-2-19,42,27,12,23,20,12,100,77,42,30.23,30.14,30.04,10,10,10,22,10,26,0.00,0,,106
2013-2-20,26,24,23,27,22,14,100,91,64,30.04,29.92,29.82,10,4,0,28,20,33,0.00,6,Snow,113
2013-2-21,23,18,14,23,17,14,100,98,93,29.90,29.82,29.78,10,3,0,24,16,28,0.00,8,Snow,24
2013-2-22,30,16,1,27,14,1,100,93,80,29.99,29.95,29.89,10,9,0,12,8,,0.00,1,Fog-Snow,286
2013-2-23,35,22,8,32,22,7,100,95,86,29.94,29.80,29.71,10,9,0,12,8,,0.00,1,Fog,213
2013-2-24,32,24,17,32,27,18,100,100,100,30.02,29.83,29.72,5,1,0,24,8,28,0.00,8,Fog-Snow,20
2013-2-25,33,26,19,32,28,18,100,96,81,30.03,29.97,29.88,10,9,3,23,16,25,0.00,5,,352
2013-2-26,33,22,10,28,20,9,100,88,75,29.95,29.85,29.77,10,10,10,15,9,,0.00,0,,322
2013-2-27,35,30,24,30,27,21,100,89,75,30.19,30.12,29.95,10,10,10,26,17,33,0.00,2,,327
2013-2-28,41,31,21,30,26,18,100,81,65,30.24,30.20,30.17,10,10,10,16,12,,0.00,1,,307